This is the latest recevied weather packets stored in our database for station/object W5ITZ. If no packets are shown the sender has not sent any weather packets the latest 10 day(s).
| Time | Temp. | Humidity | Pressure | Rain* | Wind** | Luminosity | Snow |
|---|---|---|---|---|---|---|---|
| 1777823130 | 23.89° C | 44% | 1023.3 hPa | 0 mm | - | 770 W/m² | - |
| 1777822827 | 23.89° C | 43% | 1023.4 hPa | 0 mm | - | 752 W/m² | - |
| 1777822526 | 23.89° C | 47% | 1023.5 hPa | 0 mm | - | 736 W/m² | - |
| 1777822223 | 23.89° C | 48% | 1023.3 hPa | 0 mm | - | 716 W/m² | - |
| 1777821920 | 23.89° C | 48% | 1023.4 hPa | 0 mm | - | 703 W/m² | - |
| 1777821618 | 23.33° C | 52% | 1023.4 hPa | 0 mm | - | 687 W/m² | - |
| 1777821316 | 23.33° C | 55% | 1023.4 hPa | 0 mm | - | 667 W/m² | - |
| 1777821012 | 23.33° C | 55% | 1023.2 hPa | 0 mm | - | 651 W/m² | - |
| 1777820709 | 23.33° C | 55% | 1023 hPa | 0 mm | - | 635 W/m² | - |
| 1777820405 | 23.33° C | 58% | 1023.1 hPa | 0 mm | - | 618 W/m² | - |
| 1777820103 | 23.33° C | 60% | 1023.3 hPa | 0 mm | - | 599 W/m² | - |
| 1777819799 | 22.78° C | 60% | 1022.9 hPa | 0 mm | - | 580 W/m² | - |
| 1777819497 | 22.22° C | 64% | 1022.8 hPa | 0 mm | - | 562 W/m² | - |
| 1777819195 | 22.22° C | 64% | 1022.9 hPa | 0 mm | - | 542 W/m² | - |
| 1777818891 | 22.22° C | 65% | 1022.8 hPa | 0 mm | - | 523 W/m² | - |
| 1777818587 | 21.67° C | 67% | 1023 hPa | 0 mm | - | 502 W/m² | - |
| 1777818285 | 21.67° C | 67% | 1022.9 hPa | 0 mm | - | 484 W/m² | - |
| 1777817981 | 21.11° C | 69% | 1023 hPa | 0 mm | - | 464 W/m² | - |
| 1777817679 | 21.11° C | 68% | 1022.8 hPa | 0 mm | - | 444 W/m² | - |
| 1777817375 | 21.11° C | 68% | 1022.9 hPa | 0 mm | - | 422 W/m² | - |
| 1777817072 | 21.11° C | 71% | 1022.5 hPa | 0 mm | - | 402 W/m² | - |
| 1777816768 | 20.56° C | 74% | 1022.6 hPa | 0 mm | - | 382 W/m² | - |
| 1777816466 | 20° C | 75% | 1022.7 hPa | 0 mm | - | 361 W/m² | - |
| 1777816164 | 20° C | 75% | 1022.7 hPa | 0 mm | - | 336 W/m² | - |
| 1777815861 | 19.44° C | 75% | 1022.9 hPa | 0 mm | - | 314 W/m² | - |
* Rain latest hour (hover to see other rain measurements)
** Current wind speed in m/s (hover to see current wind gust speed)